Theta_e
353 353 354 353 357 357 359 360 359 360 363 361 362 359 358 360 360 360 359 354 352 354 355 358 359 359 360 360 359 360 360 360 359 358 358 357 359 359 358 357 357 355 354
354 352 353 353 359 360 361 361 362 362 361 361 360 361 358 360 362 361 361 358 355 353 353 358 357 359 360 360 360 360 359 358 358 357 356 359 360 357 356 354 352 351 351
359 356 354 356 361 364 364 363 362 361 359 358 358 361 358 360 363 364 361 362 357 354 354 357 357 358 358 359 360 359 358 355 357 360 360 359 356 355 354 352 349 348 349
361 360 354 357 360 364 363 362 360 360 358 355 357 359 361 361 360 362 364 364 363 357 354 359 357 357 359 360 359 358 355 355 358 359 358 357 355 354 352 350 350 348 350
360 358 356 359 363 362 361 356 359 360 356 356 353 358 359 359 358 354 361 363 361 361 362 360 359 358 359 361 360 359 358 358 358 358 356 354 353 352 351 350 348 347 347
358 360 357 360 358 359 359 359 361 358 358 356 349 352 357 358 356 355 353 360 361 361 360 364 359 360 360 362 360 359 358 358 357 355 353 352 352 350 348 348 349 351 350
357 360 355 356 358 358 361 361 359 359 353 359 351 350 351 353 352 354 352 360 360 360 365 361 361 362 361 364 361 360 358 357 356 355 353 353 350 348 347 347 348 348 348
355 356 358 355 358 355 362 362 361 354 356 358 347 345 338 342 348 351 354 357 360 360 361 362 361 364 364 363 366 360 359 358 356 355 355 353 351 348 346 346 346 346 345
359 357 358 355 358 358 354 361 361 359 348 356 359 347 335 333 339 346 350 354 359 357 360 362 361 362 366 364 363 362 361 359 357 356 356 356 352 347 345 346 344 343 345
358 354 355 354 357 354 360 360 360 359 358 347 354 351 357 351 337 334 348 352 351 349 353 355 354 358 362 363 365 361 362 359 358 357 357 357 353 346 345 345 343 343 343
358 354 356 358 356 353 362 363 363 361 357 352 349 351 350 347 348 341 336 343 350 355 357 357 355 356 356 358 361 362 361 359 358 357 358 357 352 347 345 344 343 343 339
353 357 358 359 354 355 364 363 364 360 357 360 355 353 345 342 342 344 340 343 343 350 353 358 357 357 358 356 362 360 359 358 357 357 359 357 353 348 345 343 341 340 336
350 355 359 360 355 360 361 365 366 364 361 359 359 350 350 347 347 346 344 340 342 346 350 355 359 363 361 358 358 361 357 354 354 353 354 355 353 349 346 342 340 338 336
353 357 360 360 361 360 361 362 357 356 358 357 359 360 352 350 351 349 345 341 336 339 345 352 356 361 364 360 360 360 358 351 351 349 349 351 350 349 346 342 340 338 334
353 357 360 361 361 362 362 363 357 357 360 359 357 360 357 351 352 352 351 349 343 334 336 351 347 360 364 364 362 362 363 347 348 347 346 347 346 345 344 342 340 336 333
358 359 360 361 361 362 363 364 356 360 360 356 354 357 359 352 353 354 353 352 350 344 337 345 348 355 359 357 359 361 361 352 348 346 345 344 343 342 341 340 338 334 331
358 359 363 362 361 359 362 363 359 358 359 359 358 357 358 361 353 352 353 353 350 352 345 346 352 355 362 361 360 364 364 364 357 344 343 342 340 340 339 337 336 333 331
359 359 360 360 363 356 359 360 359 356 357 356 355 357 356 354 360 358 360 363 364 365 352 349 352 350 358 361 363 364 360 358 358 345 342 341 338 336 335 334 332 331 330
360 358 358 359 359 359 362 357 358 357 355 355 356 356 356 356 355 354 354 352 353 359 354 348 347 352 352 355 358 362 361 362 361 344 341 339 337 335 332 329 327 325 323
359 359 359 359 359 358 358 358 355 356 356 355 356 356 356 357 357 358 354 355 355 351 352 350 347 347 350 356 355 352 351 368 365 356 345 345 338 334 330 327 325 323 319
359 360 359 359 360 358 354 359 359 358 356 356 355 357 357 357 349 350 357 357 358 351 347 348 346 345 345 346 354 362 357 363 361 357 347 343 337 334 331 327 326 323 318
359 358 357 357 359 355 342 339 349 355 359 360 357 357 358 352 349 340 340 341 349 356 353 347 345 345 353 351 357 360 353 357 352 355 343 333 336 332 330 329 327 320 317
359 358 358 358 357 358 335 335 338 351 352 355 357 354 353 351 351 356 342 337 338 337 341 358 354 351 353 356 359 357 359 358 357 349 346 333 332 328 329 325 322 318 315
358 358 357 357 356 353 334 333 335 347 353 354 355 355 356 355 354 354 357 356 355 356 355 352 354 355 360 362 362 363 360 358 352 348 348 334 329 323 323 322 320 317 314
352 351 354 354 352 351 331 329 335 350 351 353 355 356 356 355 342 334 354 353 352 353 338 331 331 331 332 335 341 353 349 350 346 344 344 337 327 319 319 319 319 315 313
346 346 345 346 338 349 326 324 327 343 345 346 352 353 337 346 330 326 352 355 351 349 356 354 348 336 335 339 331 347 354 345 346 334 340 330 320 316 311 315 314 314 312
Wind_Speed
4 5 4 4 2 3 3 3 2 2 2 2 1 3 3 1 2 0 3 8 6 6 5 2 2 3 3 3 3 4 5 5 5 4 3 3 4 7 9 8 7 6 5
4 6 5 5 3 1 2 2 2 1 3 1 2 3 4 2 0 3 1 8 8 7 5 3 1 1 3 3 2 3 4 5 4 3 2 5 8 8 7 7 7 6 6
5 5 5 4 2 2 3 3 4 3 3 3 2 2 3 3 1 1 4 1 11 10 7 4 3 0 1 1 2 3 3 5 5 8 10 10 8 7 4 3 4 8 6
5 6 5 4 3 1 1 1 2 1 1 3 3 1 1 1 3 1 1 2 2 4 10 7 3 1 1 3 4 3 5 5 7 9 10 8 6 6 7 7 9 7 7
5 4 4 3 2 2 1 3 2 2 3 2 3 1 0 1 2 3 3 2 4 3 0 10 7 4 1 4 5 4 5 5 7 8 7 5 6 6 7 7 6 5 6
5 4 4 3 4 3 2 1 3 3 2 2 2 2 1 1 2 3 4 2 4 4 5 3 7 9 7 5 4 3 4 5 5 5 5 5 5 6 6 6 6 10 10
5 5 4 5 4 4 2 2 3 3 3 1 3 4 4 5 4 3 3 2 6 4 2 4 4 3 9 10 8 6 4 4 4 5 5 4 4 4 4 4 5 7 7
6 5 5 4 4 3 4 3 4 3 1 1 5 4 4 2 2 1 1 2 2 4 4 4 4 4 3 4 11 9 6 5 5 5 5 4 3 3 3 4 4 5 5
8 8 6 4 5 5 5 5 5 4 4 2 3 4 5 5 5 4 3 2 3 3 2 4 6 5 6 4 8 10 11 7 6 6 4 6 4 3 3 2 2 2 3
9 9 8 6 6 5 3 5 5 4 4 5 2 3 3 5 6 4 6 2 4 5 5 4 4 6 6 7 5 11 12 9 7 4 4 7 5 4 3 3 2 2 2
9 9 8 7 7 8 6 5 3 4 3 6 3 2 3 4 4 6 7 2 3 3 3 3 3 4 5 6 6 9 12 11 9 7 6 6 6 5 5 5 5 3 2
9 10 8 7 7 9 6 7 5 5 5 4 4 3 5 5 4 4 5 4 4 2 3 2 3 4 4 5 5 13 13 11 10 9 7 7 8 7 6 6 5 4 3
9 11 10 9 8 8 7 6 6 5 6 7 5 6 4 6 5 6 6 6 4 5 3 3 2 2 3 4 5 7 13 11 11 10 9 8 8 8 7 7 6 5 4
10 10 11 10 10 9 9 8 8 8 7 7 8 7 7 6 5 6 6 6 6 6 4 5 3 1 2 4 6 6 7 13 11 10 9 9 9 8 8 8 8 7 5
7 9 11 12 11 11 10 9 8 8 7 7 8 8 8 7 6 6 6 6 7 7 6 7 4 5 1 2 3 6 6 13 11 11 10 10 10 9 9 9 8 7 7
10 8 11 11 11 11 11 10 9 10 9 8 8 7 8 8 6 6 6 6 6 7 8 4 5 2 4 6 8 5 1 10 10 10 11 11 11 10 10 9 9 9 8
12 11 11 10 11 12 12 11 11 10 11 10 10 7 9 9 9 9 5 5 7 7 8 7 3 4 4 6 4 4 5 6 10 12 11 10 10 11 10 10 10 10 9
13 13 12 12 11 13 11 11 13 11 13 12 12 11 12 9 10 9 7 7 5 5 6 9 9 9 5 7 5 6 7 7 5 11 11 9 10 10 10 11 11 11 10
14 14 14 14 13 13 10 12 12 12 12 13 13 11 13 11 10 9 7 7 7 7 8 9 8 7 7 7 6 8 7 7 3 11 8 7 9 10 10 10 10 9 10
14 14 15 15 15 14 14 13 13 14 13 13 13 12 12 14 12 10 10 10 8 7 7 9 9 8 8 8 7 7 7 5 4 5 8 4 10 9 9 9 11 11 10
14 15 14 16 15 14 12 14 12 13 13 14 14 13 14 14 10 10 8 10 9 9 9 8 9 9 9 8 4 4 7 3 5 3 3 4 6 6 7 9 10 13 13
14 14 14 15 15 12 12 10 11 12 12 12 13 13 13 10 10 10 10 11 10 10 10 10 10 9 7 8 8 6 8 6 6 3 5 3 4 5 5 6 10 14 15
12 13 13 13 14 12 2 4 7 11 14 14 13 13 12 12 13 13 14 15 11 12 14 11 11 12 10 8 9 8 9 7 7 6 6 5 4 4 4 6 14 15 14
11 9 11 12 11 10 6 7 6 8 12 15 15 15 14 14 12 10 12 12 13 13 13 12 15 14 11 10 9 7 7 6 2 3 4 4 4 3 4 6 13 14 13
6 6 8 10 10 10 7 7 6 11 11 12 12 14 15 15 13 12 14 13 14 13 6 3 4 4 1 3 4 5 7 7 7 5 7 4 5 5 3 4 6 13 12
3 3 3 3 2 6 4 3 6 9 12 10 9 13 12 15 11 7 13 13 14 15 12 11 7 3 5 4 3 7 4 7 5 3 5 5 5 4 3 2 4 5 5
Wind_Direction
158 167 142 176 114 144 205 222 227 220 236 250 244 274 306 357 344 213 119 162 193 211 203 184 279 310 319 336 346 352 354 357 348 332 340 27 69 77 69 66 58 48 36
175 148 169 158 161 97 289 243 222 225 246 220 173 276 306 319 200 338 228 154 184 194 207 185 195 338 339 328 358 12 15 21 13 37 79 98 84 72 67 68 62 52 37
174 158 164 162 120 91 253 212 216 202 243 205 168 191 299 349 341 302 249 201 155 182 191 193 196 128 28 54 58 35 46 44 47 79 87 84 69 59 39 73 53 36 34
182 211 173 158 96 226 187 250 278 204 193 192 137 109 78 339 3 21 49 242 187 167 174 177 195 150 42 106 103 95 80 52 56 73 69 70 66 49 45 67 54 32 351
191 226 184 136 214 244 220 285 99 328 148 145 166 188 152 7 326 32 44 189 137 241 179 147 165 171 123 120 113 111 101 85 81 82 84 80 78 61 49 44 36 358 28
197 220 176 173 242 236 217 40 336 61 16 4 8 88 291 286 320 340 359 189 143 189 207 233 173 159 147 143 135 135 132 125 112 101 95 88 80 72 58 43 29 31 39
193 200 214 187 234 251 320 232 236 179 141 95 263 197 211 224 240 308 338 323 136 199 184 194 242 219 152 156 160 162 165 155 147 134 129 111 100 87 74 64 47 34 28
193 206 223 201 207 214 227 238 247 263 217 185 313 291 292 195 148 65 355 301 186 170 210 213 229 225 263 197 137 164 177 186 178 166 166 153 118 82 78 67 41 37 36
201 217 200 238 201 254 209 215 212 259 273 192 302 314 300 327 345 141 187 213 177 220 274 225 245 224 221 238 155 168 179 189 193 199 203 169 144 114 114 98 54 61 62
203 191 202 207 220 234 251 217 211 275 266 269 195 235 321 337 315 304 165 201 241 238 253 263 231 219 234 229 182 72 156 177 204 222 147 153 158 158 151 129 118 110 70
202 199 195 205 220 229 204 255 186 238 244 297 274 240 257 254 229 291 312 32 213 179 280 248 245 244 211 245 208 161 164 179 195 205 192 178 179 174 165 160 161 156 125
189 202 198 205 219 214 208 214 214 208 261 285 286 278 271 284 275 265 267 272 328 300 334 242 239 251 238 221 234 126 163 183 195 199 192 190 186 183 175 168 163 144 135
198 185 201 200 193 205 214 229 218 266 222 249 232 267 250 270 277 283 291 284 290 306 291 262 219 238 238 229 216 182 170 191 193 197 195 190 189 185 180 175 168 163 149
201 202 200 205 209 206 213 216 227 234 228 233 238 258 280 253 260 264 273 295 282 272 208 275 182 264 235 241 76 152 213 187 189 190 190 191 191 186 179 173 167 158 139
241 201 208 205 209 210 219 222 236 236 241 231 236 234 249 261 251 249 252 261 280 285 276 142 278 117 276 199 132 249 242 159 173 185 188 189 191 187 181 172 164 155 144
233 253 208 215 211 214 220 216 235 220 239 240 232 233 245 268 246 248 247 245 263 272 278 281 243 358 349 327 141 240 25 163 170 186 189 190 190 187 184 173 161 157 156
230 229 225 226 231 225 221 219 230 255 226 229 251 250 242 267 270 223 260 241 252 265 288 281 321 233 267 262 289 242 206 228 167 185 191 188 185 186 183 173 163 160 160
229 228 232 233 225 233 234 241 242 228 237 239 233 237 241 233 232 260 235 269 294 238 257 264 279 285 230 270 271 273 267 262 280 152 171 181 179 181 181 173 164 160 155
226 232 225 230 234 228 223 237 240 245 238 238 244 238 244 240 238 251 254 281 236 218 232 249 269 244 273 284 248 230 253 248 274 120 148 166 170 175 173 166 157 147 140
226 231 236 235 231 236 235 231 232 231 237 244 252 252 248 240 231 227 239 244 247 260 254 256 264 252 231 227 252 269 251 211 253 197 81 104 160 157 156 147 145 145 141
225 231 237 239 237 234 234 228 236 249 242 241 244 245 242 242 228 238 217 231 257 248 256 239 249 254 257 256 256 241 254 218 206 188 141 143 145 156 154 157 155 151 135
233 233 233 231 232 235 233 208 230 236 239 247 256 240 247 247 235 225 223 253 257 245 252 270 262 265 280 280 245 250 252 242 233 135 164 146 159 155 163 181 149 143 143
232 227 230 227 232 232 266 234 211 249 253 241 241 252 241 245 217 238 220 228 235 236 243 254 254 266 279 267 266 260 264 261 244 148 187 151 173 147 156 117 137 145 147
225 223 223 227 231 237 190 209 223 252 253 249 246 246 246 248 248 249 244 241 239 234 221 232 237 251 255 262 256 261 262 257 141 175 174 174 151 122 123 125 144 149 146
237 238 230 226 229 237 192 212 205 244 250 250 249 250 250 248 243 217 238 238 253 255 141 74 39 59 92 356 320 236 238 220 234 205 201 152 143 111 102 126 140 146 147
167 168 204 277 352 254 155 205 221 256 258 255 246 246 232 253 274 249 238 238 241 247 239 214 210 199 198 186 237 242 275 240 235 168 178 147 142 148 131 73 123 135 147